Sarnia, Ontario

6:16 PM EDT on October 18, 2017 (GMT -0400)
Sarnia (Hadfield)

Weather History for CYZR - November, 2012

Change the Weather History Date:

Monday, November 26, 2012

  Actual Average Record
Temperature  
Mean Temperature 27 °F -  
Max Temperature 30 °F 34 °F 59 °F (1990)
Min Temperature 24 °F 26 °F 13 °F (2013)
Degree Days  
Heating Degree Days 38    
Moisture  
Dew Point 21 °F    
Average Humidity 66    
Maximum Humidity 80    
Minimum Humidity 31    
Precipitation  
Precipitation 0.00 in 0.09 in - ()
Sea Level Pressure  
Sea Level Pressure 30.15 in    
Wind  
Wind Speed 8 mph ()    
Max Wind Speed 12 mph    
Max Gust Speed -    
Visibility 9.0 miles    
Events      
Averages and records for this station are not official NWS values.
T = Trace of Precipitation, MM = Missing Value Source: Averaged Metar Reports

Daily Weather History Graph

Daily Weather History Graph

Search for Another Location

Airport or City:

Trip Planner

Search our weather history database for the weather conditions in past years. The results will help you decide how hot, cold, wet, or windy it might be!

Date:

Astronomy

Nov. 26, 2012 Rise Set
Actual Time 7:35 AM EST 4:57 PM EST
Civil Twilight 7:04 AM EST 5:28 PM EST
Nautical Twilight 6:29 AM EST 6:04 PM EST
Astronomical Twilight 5:55 AM EST 6:38 PM EST
Moon 3:50 PM EST (11/26) 5:43 AM EST (11/26)
Length of Visible Light 10h 24m
Length of Day
9h 21m
Waxing Gibbous, 97% of the Moon is Illuminated
Nov 26
Waxing Gibbous
Nov 28
Full
Dec 6
Last Quarter
Dec 13
New
Dec 20
First Quarter

Hourly Weather History & Observations

Time (EST) Temp. Windchill Dew Point Humidity Pressure Visibility Wind Dir Wind Speed Gust Speed Precip Events Conditions
12:00 AM 32.0 °F 24.2 °F 24.8 °F 75% 29.99 in 9.0 mi West 9.2 mph - N/A   Overcast
12:02 AM 32.0 °F 24.2 °F 24.8 °F 75% 29.99 in 9.0 mi West 9.2 mph - N/A   Mostly Cloudy
12:05 AM 32.0 °F 24.2 °F 24.8 °F 75% 29.99 in 9.0 mi West 9.2 mph - N/A   Mostly Cloudy
12:21 AM 30.2 °F 22.6 °F 24.8 °F 80% 29.99 in 9.0 mi West 8.1 mph - N/A   Mostly Cloudy
12:24 AM 30.2 °F 21.9 °F 24.8 °F 80% 29.99 in 9.0 mi West 9.2 mph - N/A   Mostly Cloudy
12:40 AM 30.2 °F 22.6 °F 24.8 °F 80% 29.99 in 9.0 mi West 8.1 mph - N/A   Mostly Cloudy
12:42 AM 30.2 °F 22.6 °F 24.8 °F 80% 29.99 in 9.0 mi West 8.1 mph - N/A   Mostly Cloudy
12:59 AM 30.2 °F 21.9 °F 23.0 °F 75% 30.00 in 9.0 mi West 9.2 mph - N/A   Mostly Cloudy
1:00 AM 25 °F - 14 °F 51% 29.42 in - West 5.8 mph - -  
1:00 AM 30.2 °F 21.9 °F 24.8 °F 80% 30.00 in 9.0 mi West 9.2 mph - N/A   Mostly Cloudy
1:01 AM 30.2 °F 21.3 °F 24.8 °F 80% 30.00 in 9.0 mi West 10.4 mph - N/A   Mostly Cloudy
1:17 AM 30.2 °F 20.8 °F 24.8 °F 80% 30.01 in 9.0 mi West 11.5 mph - N/A   Mostly Cloudy
1:20 AM 32.0 °F 24.2 °F 24.8 °F 75% 30.01 in 9.0 mi West 9.2 mph - N/A   Mostly Cloudy
1:36 AM 32.0 °F 23.6 °F 24.8 °F 75% 30.01 in 9.0 mi West 10.4 mph - N/A   Overcast
1:39 AM 32.0 °F 24.2 °F 24.8 °F 75% 30.01 in 9.0 mi West 9.2 mph - N/A   Overcast
1:55 AM 32.0 °F 24.2 °F 24.8 °F 75% 30.01 in 9.0 mi West 9.2 mph - N/A   Overcast
1:57 AM 32.0 °F 23.6 °F 24.8 °F 75% 30.02 in 9.0 mi West 10.4 mph - N/A   Overcast
2:00 AM 32.0 °F 23.6 °F 24.8 °F 75% 30.02 in 9.0 mi West 10.4 mph - N/A   Overcast
2:13 AM 32.0 °F 24.2 °F 24.8 °F 75% 30.02 in 9.0 mi West 9.2 mph - N/A   Mostly Cloudy
2:16 AM 32.0 °F 24.8 °F 24.8 °F 75% 30.02 in 9.0 mi West 8.1 mph - N/A   Overcast
2:35 AM 32.0 °F 24.2 °F 24.8 °F 75% 30.03 in 9.0 mi West 9.2 mph - N/A   Mostly Cloudy
2:51 AM 30.2 °F 21.9 °F 23.0 °F 75% 30.04 in 9.0 mi West 9.2 mph - N/A   Mostly Cloudy
2:53 AM 32.0 °F 24.2 °F 24.8 °F 75% 30.04 in 9.0 mi West 9.2 mph - N/A   Mostly Cloudy
3:00 AM 32.0 °F 24.2 °F 24.8 °F 75% 30.04 in 9.0 mi West 9.2 mph - N/A   Overcast
3:10 AM 32.0 °F 24.8 °F 24.8 °F 75% 30.04 in 9.0 mi West 8.1 mph - N/A   Overcast
3:12 AM 32.0 °F 24.8 °F 24.8 °F 75% 30.04 in 9.0 mi West 8.1 mph - N/A   Overcast
3:28 AM 32.0 °F 24.2 °F 24.8 °F 75% 30.04 in 9.0 mi West 9.2 mph - N/A   Overcast
3:31 AM 32.0 °F 24.2 °F 24.8 °F 75% 30.04 in 9.0 mi West 9.2 mph - N/A   Overcast
3:47 AM 32.0 °F 25.6 °F 24.8 °F 75% 30.05 in 9.0 mi West 6.9 mph - N/A   Overcast
3:49 AM 32.0 °F 24.8 °F 24.8 °F 75% 30.05 in 9.0 mi West 8.1 mph - N/A   Overcast
4:00 AM 32.0 °F 25.6 °F 24.8 °F 75% 30.05 in 9.0 mi West 6.9 mph - N/A   Overcast
4:06 AM 32.0 °F 25.6 °F 24.8 °F 75% 30.05 in 9.0 mi West 6.9 mph - N/A   Overcast
4:07 AM 32.0 °F 25.6 °F 24.8 °F 75% 30.05 in 9.0 mi West 6.9 mph - N/A   Overcast
4:24 AM 32.0 °F 24.8 °F 24.8 °F 75% 30.05 in 9.0 mi West 8.1 mph - N/A   Overcast
4:26 AM 32.0 °F 24.8 °F 24.8 °F 75% 30.05 in 9.0 mi West 8.1 mph - N/A   Overcast
4:42 AM 32.0 °F 25.6 °F 23.0 °F 69% 30.05 in 9.0 mi West 6.9 mph - N/A   Overcast
4:45 AM 32.0 °F 25.6 °F 24.8 °F 75% 30.05 in 9.0 mi West 6.9 mph - N/A   Overcast
5:00 AM 32.0 °F 25.6 °F 24.8 °F 75% 30.06 in 9.0 mi West 6.9 mph - N/A   Overcast
5:03 AM 32.0 °F 25.6 °F 24.8 °F 75% 30.06 in 9.0 mi West 6.9 mph - N/A   Overcast
5:20 AM 32.0 °F 24.8 °F 24.8 °F 75% 30.07 in 9.0 mi West 8.1 mph - N/A   Overcast
5:22 AM 32.0 °F 24.2 °F 24.8 °F 75% 30.07 in 9.0 mi West 9.2 mph - N/A   Overcast
5:39 AM 32.0 °F 24.8 °F 24.8 °F 75% 30.08 in 9.0 mi West 8.1 mph - N/A   Overcast
5:41 AM 32.0 °F 24.8 °F 24.8 °F 75% 30.08 in 9.0 mi West 8.1 mph - N/A   Overcast
5:57 AM 32.0 °F 24.8 °F 24.8 °F 75% 30.09 in 9.0 mi West 8.1 mph - N/A   Overcast
5:59 AM 32.0 °F 25.6 °F 24.8 °F 75% 30.09 in 9.0 mi West 6.9 mph - N/A   Overcast
6:00 AM 32.0 °F 25.6 °F 24.8 °F 75% 30.09 in 9.0 mi West 6.9 mph - N/A   Overcast
6:16 AM 32.0 °F 24.8 °F 24.8 °F 75% 30.10 in 9.0 mi West 8.1 mph - N/A   Overcast
6:18 AM 32.0 °F 25.6 °F 24.8 °F 75% 30.10 in 9.0 mi West 6.9 mph - N/A   Overcast
6:34 AM 32.0 °F 24.2 °F 24.8 °F 75% 30.10 in 9.0 mi WNW 9.2 mph - N/A   Overcast
6:53 AM 32.0 °F 25.6 °F 24.8 °F 75% 30.12 in 9.0 mi West 6.9 mph - N/A   Overcast
6:56 AM 32.0 °F 24.8 °F 24.8 °F 75% 30.12 in 9.0 mi West 8.1 mph - N/A   Overcast
7:00 AM 26 °F - 14 °F 48% 29.57 in - West 9.2 mph - -  
7:00 AM 32.0 °F 25.6 °F 24.8 °F 75% 30.12 in 9.0 mi West 6.9 mph - N/A   Overcast
7:12 AM 32.0 °F 24.2 °F 23.0 °F 69% 30.12 in 9.0 mi WNW 9.2 mph - N/A   Overcast
7:14 AM 32.0 °F 24.8 °F 24.8 °F 75% 30.12 in 9.0 mi WNW 8.1 mph - N/A   Overcast
7:31 AM 32.0 °F 25.6 °F 23.0 °F 69% 30.12 in 9.0 mi WNW 6.9 mph - N/A   Overcast
7:32 AM 32.0 °F 24.8 °F 23.0 °F 69% 30.12 in 9.0 mi WNW 8.1 mph - N/A   Overcast
7:49 AM 32.0 °F 24.8 °F 23.0 °F 69% 30.13 in 9.0 mi NW 8.1 mph - N/A   Overcast
7:51 AM 32.0 °F 24.2 °F 23.0 °F 69% 30.13 in 9.0 mi WNW 9.2 mph - N/A   Overcast
8:00 AM 32.0 °F 25.6 °F 23.0 °F 69% 30.13 in 9.0 mi WNW 6.9 mph - N/A   Overcast
8:07 AM 32.0 °F 24.8 °F 23.0 °F 69% 30.14 in 9.0 mi WNW 8.1 mph - N/A   Overcast
8:10 AM 32.0 °F 24.8 °F 23.0 °F 69% 30.14 in 9.0 mi WNW 8.1 mph - N/A   Overcast
8:26 AM 32.0 °F 27.5 °F 24.8 °F 75% 30.15 in 9.0 mi WNW 4.6 mph - N/A   Overcast
8:28 AM 32.0 °F 26.4 °F 24.8 °F 75% 30.14 in 9.0 mi NW 5.8 mph - N/A   Overcast
8:45 AM 32.0 °F 23.6 °F 23.0 °F 69% 30.15 in 9.0 mi WNW 10.4 mph - N/A   Overcast
8:46 AM 32.0 °F 24.2 °F 23.0 °F 69% 30.15 in 9.0 mi WNW 9.2 mph - N/A   Overcast
9:00 AM 32.0 °F 26.4 °F 23.0 °F 69% 30.16 in 9.0 mi WNW 5.8 mph - N/A   Overcast
9:03 AM 32.0 °F 24.8 °F 23.0 °F 69% 30.16 in 9.0 mi WNW 8.1 mph - N/A   Overcast
9:05 AM 32.0 °F 24.2 °F 23.0 °F 69% 30.16 in 9.0 mi WNW 9.2 mph - N/A   Overcast
9:21 AM 32.0 °F 25.6 °F 23.0 °F 69% 30.16 in 9.0 mi WNW 6.9 mph - N/A   Overcast
9:24 AM 32.0 °F 26.4 °F 23.0 °F 69% 30.16 in 9.0 mi WNW 5.8 mph - N/A   Overcast
9:40 AM 32.0 °F 26.4 °F 23.0 °F 69% 30.17 in 9.0 mi West 5.8 mph - N/A   Overcast
9:42 AM 32.0 °F 26.4 °F 23.0 °F 69% 30.17 in 9.0 mi West 5.8 mph - N/A   Overcast
9:59 AM 32.0 °F 26.4 °F 23.0 °F 69% 30.18 in 9.0 mi WNW 5.8 mph - N/A   Overcast
10:00 AM 32.0 °F 24.8 °F 21.2 °F 64% 30.18 in 9.0 mi West 8.1 mph - N/A   Overcast
10:01 AM 32.0 °F 24.8 °F 21.2 °F 64% 30.18 in 9.0 mi WNW 8.1 mph - N/A   Overcast
10:18 AM 32.0 °F 25.6 °F 21.2 °F 64% 30.18 in 9.0 mi West 6.9 mph - N/A   Overcast
10:20 AM 32.0 °F 25.6 °F 21.2 °F 64% 30.18 in 9.0 mi West 6.9 mph - N/A   Overcast
10:36 AM 32.0 °F 25.6 °F 21.2 °F 64% 30.19 in 9.0 mi WNW 6.9 mph - N/A   Overcast
10:39 AM 32.0 °F 25.6 °F 21.2 °F 64% 30.19 in 9.0 mi WNW 6.9 mph - N/A   Overcast
10:55 AM 32.0 °F 24.8 °F 21.2 °F 64% 30.19 in 9.0 mi West 8.1 mph - N/A   Overcast
10:57 AM 32.0 °F 25.6 °F 21.2 °F 64% 30.19 in 9.0 mi WNW 6.9 mph - N/A   Overcast
11:00 AM 32.0 °F 24.8 °F 19.4 °F 60% 30.19 in 9.0 mi WNW 8.1 mph - N/A   Overcast
11:14 AM 32.0 °F 24.2 °F 21.2 °F 64% 30.20 in 9.0 mi WNW 9.2 mph - N/A   Overcast
11:16 AM 32.0 °F 25.6 °F 19.4 °F 60% 30.20 in 9.0 mi West 6.9 mph - N/A   Overcast
11:33 AM 33.8 °F 26.4 °F 19.4 °F 56% 30.20 in 9.0 mi WNW 9.2 mph - N/A   Overcast
11:35 AM 33.8 °F 25.8 °F 19.4 °F 56% 30.19 in 9.0 mi West 10.4 mph - N/A   Overcast
11:51 AM 33.8 °F 25.3 °F 17.6 °F 52% 30.19 in 9.0 mi West 11.5 mph - N/A   Overcast
11:53 AM 33.8 °F 25.8 °F 19.4 °F 56% 30.19 in 9.0 mi WNW 10.4 mph - N/A   Overcast
12:00 PM 33.8 °F 27.7 °F 19.4 °F 56% 30.19 in 9.0 mi WNW 6.9 mph - N/A   Overcast
12:10 PM 33.8 °F 26.4 °F 19.4 °F 56% 30.18 in 9.0 mi WNW 9.2 mph - N/A   Overcast
12:11 PM 33.8 °F 27.0 °F 19.4 °F 56% 30.18 in 9.0 mi West 8.1 mph - N/A   Overcast
12:28 PM 33.8 °F 25.3 °F 19.4 °F 56% 30.18 in 9.0 mi WNW 11.5 mph - N/A   Overcast
12:30 PM 33.8 °F 27.0 °F 19.4 °F 56% 30.18 in 9.0 mi WNW 8.1 mph - N/A   Overcast
12:46 PM 33.8 °F 25.3 °F 21.2 °F 60% 30.18 in 9.0 mi WNW 11.5 mph - N/A   Overcast
12:49 PM 33.8 °F 25.3 °F 19.4 °F 56% 30.19 in 9.0 mi WNW 11.5 mph - N/A   Overcast
1:00 PM 30 °F - 11 °F 31% 29.69 in - West 9.2 mph - -  
1:00 PM 33.8 °F 26.4 °F 19.4 °F 56% 30.19 in 9.0 mi WNW 9.2 mph - N/A   Overcast
1:05 PM 33.8 °F 25.3 °F 19.4 °F 56% 30.19 in 9.0 mi NW 11.5 mph - N/A   Overcast
1:07 PM 33.8 °F 25.8 °F 19.4 °F 56% 30.19 in 9.0 mi WNW 10.4 mph - N/A   Overcast
1:24 PM 33.8 °F 25.3 °F 21.2 °F 60% 30.19 in 9.0 mi WNW 11.5 mph - N/A   Overcast
1:26 PM 33.8 °F 25.8 °F 21.2 °F 60% 30.19 in 9.0 mi WNW 10.4 mph - N/A   Overcast
1:42 PM 33.8 °F 27.7 °F 21.2 °F 60% 30.19 in 9.0 mi West 6.9 mph - N/A   Overcast
1:45 PM 33.8 °F 26.4 °F 21.2 °F 60% 30.19 in 9.0 mi WNW 9.2 mph - N/A   Overcast
2:00 PM 33.8 °F 26.4 °F 21.2 °F 60% 30.19 in 9.0 mi West 9.2 mph - N/A   Overcast
2:04 PM 33.8 °F 25.8 °F 21.2 °F 60% 30.19 in 9.0 mi West 10.4 mph - N/A   Overcast
2:20 PM 33.8 °F 28.6 °F 21.2 °F 60% 30.19 in 9.0 mi WNW 5.8 mph - N/A   Overcast
2:22 PM 33.8 °F 27.7 °F 21.2 °F 60% 30.19 in 9.0 mi WNW 6.9 mph - N/A   Overcast
2:39 PM 32.0 °F 24.8 °F 21.2 °F 64% 30.19 in 9.0 mi WNW 8.1 mph - N/A   Overcast
2:40 PM 32.0 °F 24.8 °F 21.2 °F 64% 30.19 in 9.0 mi WNW 8.1 mph - N/A   Overcast
2:57 PM 32.0 °F 24.2 °F 21.2 °F 64% 30.19 in 9.0 mi WNW 9.2 mph - N/A   Overcast
2:59 PM 32.0 °F 24.8 °F 21.2 °F 64% 30.19 in 9.0 mi WNW 8.1 mph - N/A   Overcast
3:00 PM 32.0 °F 24.8 °F 21.2 °F 64% 30.20 in 9.0 mi WNW 8.1 mph - N/A   Overcast
3:15 PM 32.0 °F 25.6 °F 21.2 °F 64% 30.20 in 9.0 mi WNW 6.9 mph - N/A   Overcast
3:18 PM 32.0 °F 23.6 °F 21.2 °F 64% 30.21 in 9.0 mi WNW 10.4 mph - N/A   Overcast
3:34 PM 32.0 °F 24.8 °F 21.2 °F 64% 30.21 in 9.0 mi NW 8.1 mph - N/A   Overcast
3:36 PM 32.0 °F 24.2 °F 23.0 °F 69% 30.21 in 9.0 mi WNW 9.2 mph - N/A   Overcast
3:53 PM 32.0 °F 24.8 °F 21.2 °F 64% 30.22 in 9.0 mi WNW 8.1 mph - N/A   Overcast
3:55 PM 32.0 °F 25.6 °F 21.2 °F 64% 30.22 in 9.0 mi WNW 6.9 mph - N/A   Overcast
4:00 PM 32.0 °F 25.6 °F 21.2 °F 64% 30.22 in 9.0 mi West 6.9 mph - N/A   Overcast
4:11 PM 32.0 °F 24.8 °F 19.4 °F 60% 30.22 in 9.0 mi West 8.1 mph - N/A   Overcast
4:14 PM 32.0 °F 24.8 °F 19.4 °F 60% 30.22 in 9.0 mi West 8.1 mph - N/A   Overcast
4:30 PM 32.0 °F 24.2 °F 21.2 °F 64% 30.22 in 9.0 mi WNW 9.2 mph - N/A   Overcast
4:32 PM 32.0 °F 26.4 °F 19.4 °F 60% 30.22 in 9.0 mi West 5.8 mph - N/A   Overcast
4:49 PM 32.0 °F 25.6 °F 19.4 °F 60% 30.23 in 9.0 mi WNW 6.9 mph - N/A   Overcast
4:50 PM 32.0 °F 25.6 °F 19.4 °F 60% 30.23 in 9.0 mi WNW 6.9 mph - N/A   Overcast
5:00 PM 32.0 °F 26.4 °F 19.4 °F 60% 30.23 in 9.0 mi West 5.8 mph - N/A   Overcast
5:07 PM 32.0 °F 25.6 °F 19.4 °F 60% 30.23 in 9.0 mi West 6.9 mph - N/A   Overcast
5:08 PM 32.0 °F 25.6 °F 19.4 °F 60% 30.23 in 9.0 mi West 6.9 mph - N/A   Overcast
5:24 PM 32.0 °F 26.4 °F 19.4 °F 60% 30.23 in 9.0 mi WNW 5.8 mph - N/A   Overcast
5:27 PM 32.0 °F 25.6 °F 19.4 °F 60% 30.23 in 9.0 mi WNW 6.9 mph - N/A   Overcast
5:43 PM 32.0 °F 24.8 °F 19.4 °F 60% 30.24 in 9.0 mi West 8.1 mph - N/A   Overcast
5:46 PM 32.0 °F 25.6 °F 19.4 °F 60% 30.24 in 9.0 mi WNW 6.9 mph - N/A   Overcast
6:00 PM 32.0 °F 24.2 °F 19.4 °F 60% 30.25 in 9.0 mi WNW 9.2 mph - N/A   Overcast
6:02 PM 32.0 °F 24.8 °F 19.4 °F 60% 30.25 in 9.0 mi West 8.1 mph - N/A   Overcast
6:04 PM 32.0 °F 24.2 °F 19.4 °F 60% 30.25 in 9.0 mi WNW 9.2 mph - N/A   Overcast
6:21 PM 32.0 °F 24.8 °F 19.4 °F 60% 30.25 in 9.0 mi West 8.1 mph - N/A   Overcast
6:23 PM 32.0 °F 25.6 °F 17.6 °F 55% 30.25 in 9.0 mi West 6.9 mph - N/A   Overcast
6:39 PM 32.0 °F 26.4 °F 19.4 °F 60% 30.25 in 9.0 mi West 5.8 mph - N/A   Overcast
6:42 PM 30.2 °F 22.6 °F 19.4 °F 64% 30.25 in 9.0 mi West 8.1 mph - N/A   Overcast
6:58 PM 30.2 °F 24.3 °F 19.4 °F 64% 30.25 in 9.0 mi West 5.8 mph - N/A   Mostly Cloudy
7:00 PM 24 °F - 13 °F 49% 29.93 in - WNW 6.9 mph - -  
7:00 PM 30.2 °F 24.3 °F 19.4 °F 64% 30.25 in 9.0 mi West 5.8 mph - N/A   Mostly Cloudy
7:01 PM 30.2 °F 24.3 °F 19.4 °F 64% 30.25 in 9.0 mi West 5.8 mph - N/A   Mostly Cloudy
7:17 PM 30.2 °F 24.3 °F 19.4 °F 64% 30.25 in 9.0 mi West 5.8 mph - N/A   Mostly Cloudy
7:19 PM 30.2 °F 25.4 °F 19.4 °F 64% 30.25 in 9.0 mi West 4.6 mph - N/A   Mostly Cloudy
7:36 PM 30.2 °F 21.9 °F 17.6 °F 60% 30.25 in 9.0 mi West 9.2 mph - N/A   Overcast
7:38 PM 30.2 °F 23.4 °F 17.6 °F 60% 30.25 in 9.0 mi West 6.9 mph - N/A   Overcast
7:54 PM 30.2 °F 23.4 °F 17.6 °F 60% 30.25 in 9.0 mi West 6.9 mph - N/A   Overcast
7:57 PM 30.2 °F 24.3 °F 19.4 °F 64% 30.25 in 9.0 mi West 5.8 mph - N/A   Overcast
8:00 PM 30.2 °F 24.3 °F 19.4 °F 64% 30.26 in 9.0 mi WNW 5.8 mph - N/A   Overcast
8:13 PM 30.2 °F 24.3 °F 19.4 °F 64% 30.26 in 9.0 mi WNW 5.8 mph - N/A   Overcast
8:16 PM 30.2 °F 25.4 °F 19.4 °F 64% 30.26 in 9.0 mi West 4.6 mph - N/A   Overcast
8:32 PM 30.2 °F 26.7 °F 19.4 °F 64% 30.26 in 9.0 mi West 3.5 mph - N/A   Overcast
8:33 PM 30.2 °F 25.4 °F 19.4 °F 64% 30.26 in 9.0 mi West 4.6 mph - N/A   Overcast
8:50 PM 30.2 °F 24.3 °F 19.4 °F 64% 30.26 in 9.0 mi West 5.8 mph - N/A   Mostly Cloudy
8:52 PM 30.2 °F 24.3 °F 19.4 °F 64% 30.26 in 9.0 mi West 5.8 mph - N/A   Mostly Cloudy
9:00 PM 30.2 °F 24.3 °F 17.6 °F 60% 30.26 in 9.0 mi West 5.8 mph - N/A   Mostly Cloudy
9:08 PM 30.2 °F 23.4 °F 17.6 °F 60% 30.26 in 9.0 mi West 6.9 mph - N/A   Mostly Cloudy
9:11 PM 30.2 °F 24.3 °F 17.6 °F 60% 30.27 in 9.0 mi West 5.8 mph - N/A   Mostly Cloudy
9:27 PM 28.4 °F 22.2 °F 19.4 °F 69% 30.27 in 9.0 mi West 5.8 mph - N/A   Mostly Cloudy
9:30 PM 28.4 °F 22.2 °F 17.6 °F 64% 30.27 in 9.0 mi West 5.8 mph - N/A   Mostly Cloudy
9:46 PM 30.2 °F 24.3 °F 17.6 °F 60% 30.28 in 9.0 mi West 5.8 mph - N/A   Mostly Cloudy
9:48 PM 30.2 °F 24.3 °F 19.4 °F 64% 30.28 in 9.0 mi West 5.8 mph - N/A   Mostly Cloudy
10:04 PM 30.2 °F 24.3 °F 19.4 °F 64% 30.28 in 9.0 mi West 5.8 mph - N/A   Overcast
10:07 PM 30.2 °F 24.3 °F 19.4 °F 64% 30.28 in 9.0 mi West 5.8 mph - N/A   Overcast
10:23 PM 30.2 °F 24.3 °F 19.4 °F 64% 30.28 in 9.0 mi West 5.8 mph - N/A   Mostly Cloudy
10:26 PM 30.2 °F 24.3 °F 19.4 °F 64% 30.28 in 9.0 mi West 5.8 mph - N/A   Mostly Cloudy
10:42 PM 30.2 °F 24.3 °F 19.4 °F 64% 30.28 in 9.0 mi WNW 5.8 mph - N/A   Mostly Cloudy
10:45 PM 30.2 °F 22.6 °F 19.4 °F 64% 30.28 in 9.0 mi West 8.1 mph - N/A   Mostly Cloudy
11:00 PM 30.2 °F 22.6 °F 19.4 °F 64% 30.28 in 9.0 mi West 8.1 mph - N/A   Mostly Cloudy
11:03 PM 30.2 °F 22.6 °F 19.4 °F 64% 30.28 in 9.0 mi West 8.1 mph - N/A   Mostly Cloudy
11:19 PM 30.2 °F 22.6 °F 19.4 °F 64% 30.29 in 9.0 mi WNW 8.1 mph - N/A   Overcast
11:22 PM 30.2 °F 22.6 °F 19.4 °F 64% 30.29 in 9.0 mi WNW 8.1 mph - N/A   Mostly Cloudy
11:38 PM 30.2 °F 23.4 °F 19.4 °F 64% 30.29 in 9.0 mi West 6.9 mph - N/A   Mostly Cloudy
11:41 PM 30.2 °F 23.4 °F 19.4 °F 64% 30.29 in 9.0 mi West 6.9 mph - N/A   Mostly Cloudy
11:57 PM 28.4 °F 21.2 °F 19.4 °F 69% 30.29 in 9.0 mi West 6.9 mph - N/A   Mostly Cloudy